Xpokerkiukiu

Jackpot

Texas Poker Multi Jackpot System

Kini Telah hadir Jackpot SUPER ROYAL FLUSH

Kini Telah hadir Jackpot 2000 (khusus table VIP keatas).

Ikutilah global jackpot yang tersedia di system kami, dengan system jackpot terbaru dan pertama di indonesia, anda dapat membeli jackpot dengan harga 100 rupiah saja dan menangkan hadiahnya hingga puluhan juta rupiah.

Jackpot bukanlah suatu keharusan untuk dibeli, namun kami memberikan suatu fitur tambahan untuk member tercinta dari www.kingpoker99.com.

Terdapat tiga pilihan harga jackpot yang bisa anda beli yaitu :100,500,1000 dan 2000(khusus table VIP Keatas) rupiah.

Hadiah dari Multi jackpot system www.kingpoker99.com

  1. full house x 10 harga jackpot yang anda beli.
      (contoh:anda membeli 1000 maka:1000 X10 = 10.000)
  2. four of kind x 250 harga jackpot yang anda beli
      (contoh:anda membeli 1000 maka:1000 X250 = 250.000)
  3. Straight flush x 1200
      (contoh:anda membeli 1000 maka:1000 X1200 = 1.200.000)
  4. Royal flush x 10000 harga jackpot yang anda beli
      (contoh:anda membeli 1000 maka:1000 X10000 = 10.000.000)
  5. SUPER ROYAL FLUSH x 30000 harga jackpot yang anda beli
      (contoh:anda membeli 1000 maka:1000 X30000 = 30.000.000)

Kondisi kartu

  1. full house adalah kondisi kartu dimana kartu anda dan kartu tengah dengan total 7 kartu bisa mendapatkan nilai 5 kartu dengan kombinasi 1 tris(three of kind) dan 1 pair, contoh 3 kartu 10 dan 2 kartu 5
  2. Four of kind adalah kondisi kartu dimana kartu anda dan kartu tengah dengan total 7 kartu bisa mendapatkan nilai 5 kartu dengan kombinasi 4 kartu yang sama jumlah dan 1 kartu apapun juga contoh anda mendapatkan 4 buah kartu angka 3 dan 1 kartu apapun.
  3. Staright flush adalah kondisi kartu dimana kartu anda dan kartu tengah dengan total 7 kartu bisa mendapatkan nilai 5 kartu dengan kombinasi seri / staright dengan kembang yang sama contoh : urutan kartu dari angka 5, 6, 7, 8 , 9 10 dengan kembang yg sama misalnya as hati
  4. Royal flush adalah kondisi kartu dimana kartu anda dan kartu tengah dengan total 7 kartu bisa mendapatkan nilai 5 kartu dengan kombinasi seri / staright dengan kembang yang sama tetapi kartu tersebut haruslah dimulai dari 10. contoh 10, Queen, Jack, King dan aces dengan kembang yang sama
  5. Super Royal flush adalah kondisi kartu dimana Kedua kartu anda digabung dengan 3 kartu pertama meja haruslah royal flush. contoh kartu anda 10,Queen kembang sama dan 3 kartu pertama meja adalah Jack, King dan aces dengan kembang yang sama

Demikian adalah penjelasan dari Multi Jackpot www.kingpoker99.com terima kasih dan selamat bermain salam hoki dari kami

Texas Poker Jackpot Winner

TOP SUPER ROYAL FLUSH
No.TanggalNamaPriceWin
117/08 01:56CIKKU999Super Royal flush30,000,000
217/08 01:18RENJOSuper Royal flush30,000,000
316/08 21:47COBAAJA23Super Royal flush3,000,000
416/08 17:30M4ST3R_P0KSuper Royal flush3,000,000
516/08 10:44NGOSSANSuper Royal flush6,000,000
TOP ROYAL FLUSH
No.TanggalNamaPriceWin
117/08 02:06PRAN28Royal flush5,000,000
217/08 02:03HITACHI77Royal flush1,000,000
317/08 01:49MARINIRRRRoyal flush2,000,000
417/08 01:34CIZ428OV66Royal flush2,000,000
517/08 01:24PIYUVOLTUSRoyal flush5,000,000
TOP STRAIGHT FLUSH
No.TanggalNamaPriceWin
117/08 02:25ERNICYGStraight Flush1,200,000
217/08 02:23TNT1980Straight Flush120,000
317/08 02:22GAPLEKAZAStraight Flush240,000
417/08 02:21B4194999Straight Flush120,000
517/08 02:21TEMPEL12Straight Flush600,000
LATEST JACKPOT
No.TanggalNamaPriceWin
117/08 02:28CARIDUIT11Full House1,000
217/08 02:28PAIR2AA22Full House20,000
317/08 02:28REDES234Full House20,000
417/08 02:28UDAY72Full House1,000
517/08 02:28CDR26Four Of A Kind250,000
617/08 02:28ZIZAKUFull House10,000
717/08 02:28MOOMBEEFull House2,000
817/08 02:28TAKRIB9999Full House5,000
917/08 02:28AJA31Full House2,000
1017/08 02:28RSUD234Four Of A Kind50,000
1117/08 02:28MRHADI88Full House20,000
1217/08 02:28DENIGEOLFull House5,000
1317/08 02:28HAPPY_39Full House1,000
1417/08 02:28BASIT53Four Of A Kind50,000
1517/08 02:28MORPIN33Full House2,000
1617/08 02:28LIGA99Full House2,000
1717/08 02:28ANDX07Full House2,000
1817/08 02:28VASLONEFull House2,000
1917/08 02:28BOEB95Full House1,000
2017/08 02:28WAWAN_SJFull House1,000
2117/08 02:28C4THERINEEFull House10,000
2217/08 02:28VEEESPAFull House1,000
2317/08 02:28DERI15Full House10,000
2417/08 02:28MRTITO22Full House5,000
2517/08 02:28NOVEN44Full House5,000
2617/08 02:28GSFKMLN67RFull House2,000
2717/08 02:28W1N1987Full House2,000
2817/08 02:28SAKITABANGFull House5,000
2917/08 02:27KCIUSL6XJWFull House2,000
3017/08 02:27INPASFull House10,000
3117/08 02:27HUHA303Full House5,000
3217/08 02:27PHEOT07Full House2,000
3317/08 02:27WAK696Full House2,000
3417/08 02:27PRINCE222Full House2,000
3517/08 02:27ZDN22NDFull House5,000
3617/08 02:27NICKNAME09Full House1,000
3717/08 02:27TOZZFull House1,000
3817/08 02:27ZXCV55Full House10,000
3917/08 02:27RAJATERTUAFull House10,000
4017/08 02:27LUV_MAIAFull House2,000
4117/08 02:27LB881306Full House5,000
4217/08 02:27AR4KUND0Full House2,000
4317/08 02:27SIRUP__LEKFull House10,000
4417/08 02:27TUNGSHUTFull House20,000
4517/08 02:27UDA_KANDUFull House1,000
4617/08 02:27SERDA43Full House5,000
4717/08 02:27WOWOO15Full House2,000
4817/08 02:27MBAAHQUFull House2,000
4917/08 02:27JEPOT11Four Of A Kind50,000
5017/08 02:27WDROYALFLUFull House2,000

Domino Multi Jackpot System

Ikutilah global jackpot yang tersedia di system kami, dengan system jackpot terbaru dan pertama di indonesia, anda dapat membeli jackpot dengan harga 100 rupiah saja dan menangkan hadiahnya hingga puluhan juta rupiah.

Jackpot bukanlah suatu keharusan untuk dibeli, namun kami memberikan suatu fitur tambahan untuk member tercinta dari www.kingpoker99.com.

Terdapat tiga pilihan harga jackpot yang bisa anda beli yaitu :100,500 dan 1000 rupiah.

Hadiah dari Multi jackpot system www.kingpoker99.com

  1. Murni Kecil x 50 harga jackpot yang anda beli.
      (contoh:anda membeli 1000 maka:1000 X 50 = 50.000)
  2. Murni Besar x 50 harga jackpot yang anda beli
      (contoh:anda membeli 1000 maka:1000 X 50 = 50.000)
  3. BALAK x 100 harga jackpot yang anda beli
      (contoh:anda membeli 1000 maka:1000 X 100 = 100.000)
  4. ENAM DEWA x 6666 harga jackpot yang anda beli
      (contoh:anda membeli 1000 maka:1000 X 6666 = 6.666.000)

Demikian adalah penjelasan dari Multi Jackpot www.kingpoker99.com terima kasih dan selamat bermain salam hoki dari kami

Domino Jackpot Winner

TOP ENAM DEWA
No.TanggalNamaPriceWin
117/08 01:47DAD08F35murni enam3,333,000
217/08 01:45TUNAI007murni enam3,333,000
317/08 00:43NGAPUNGGmurni enam3,333,000
416/08 23:04HANDTWOmurni enam6,666,000
516/08 21:36GENIT99murni enam666,600
TOP BALAK
No.TanggalNamaPriceWin
117/08 02:27GEONGGONGbalak50,000
217/08 02:26DURIXbalak10,000
317/08 02:21KENCUT21balak50,000
417/08 02:12KBYD124balak10,000
517/08 02:10SEPATU22balak100,000
LATEST JACKPOT
No.TanggalNamaPriceWin
117/08 02:28R1B3RYmurni kecil5,000
217/08 02:28W1DROWmurni besar25,000
317/08 02:28DADUNG32murni kecil25,000
417/08 02:28MEIDYTA88murni kecil50,000
517/08 02:28LAY4U99murni besar50,000
617/08 02:27GGK5murni kecil50,000
717/08 02:27GEONGGONGbalak50,000
817/08 02:26DURIXbalak10,000
917/08 02:26GDIWAN99murni besar50,000
1017/08 02:26RRVTD3CEUBmurni besar50,000
1117/08 02:25ZHOLLmurni kecil50,000
1217/08 02:25KAYMONSmurni kecil50,000
1317/08 02:25DAYEK93murni besar25,000
1417/08 02:25ISENGAJAHmurni besar25,000
1517/08 02:22S14P_805murni besar5,000
1617/08 02:22RAJAJEN09murni besar25,000
1717/08 02:22GENDULAKmurni besar50,000
1817/08 02:22BONG99Qmurni kecil25,000
1917/08 02:21ADILIA17murni kecil5,000
2017/08 02:21KENCUT21balak50,000
2117/08 02:21BAWING12murni kecil50,000
2217/08 02:21DIRGA1987murni besar50,000
2317/08 02:20VOLUME66murni besar25,000
2417/08 02:20AYUNA4ANmurni kecil25,000
2517/08 02:19YADAH88murni besar50,000
2617/08 02:19SEPATU22murni besar50,000
2717/08 02:18GASPOL8989murni kecil25,000
2817/08 02:16ELONG322murni besar25,000
2917/08 02:15PUHUT33murni besar50,000
3017/08 02:15LIZARDCOYmurni kecil25,000
3117/08 02:15MEIDYTA88murni kecil50,000
3217/08 02:15UWINISA919murni besar5,000
3317/08 02:14ZXCV9090murni besar25,000
3417/08 02:14ERIKMOR5murni kecil25,000
3517/08 02:14FISA234murni kecil50,000
3617/08 02:14AYUNA4ANmurni kecil25,000
3717/08 02:14COMP07murni kecil5,000
3817/08 02:13MENU45murni besar25,000
3917/08 02:13WDW9murni kecil5,000
4017/08 02:13BIJII87murni kecil25,000
4117/08 02:12J3RIB3Tmurni kecil50,000
4217/08 02:12IDR1S99murni kecil25,000
4317/08 02:12KBYD124balak10,000
4417/08 02:11PAIMAN54murni besar25,000
4517/08 02:11TINGGI63murni besar50,000
4617/08 02:10SEPATU22balak100,000
4717/08 02:10BG7412WO98murni besar5,000
4817/08 02:10RAJAJEN09balak50,000
4917/08 02:09CAHAYA8282balak100,000
5017/08 02:09BERJET89murni kecil50,000

Ceme Multi Jackpot System

Jackpot dilihat dari gabungan kartu pemain dengan kartu bandar. Bandar harus membeli jackpot sebanyak jumlah player yang sedang duduk. Sebagai contoh bila terdapat 3 pemain duduk bermain, dan bandar memutuskan untuk membeli jackpot Rp 1.000, maka pada periode tersebut bandar akan membeli jackpot sebanyak 3xRp1.000 = Rp3.000.

Jackpot bukanlah suatu keharusan untuk dibeli, namun kami memberikan suatu fitur tambahan untuk member tercinta dari www.kingpoker99.com.

Terdapat tiga pilihan harga jackpot yang bisa anda beli yaitu :100,500 dan 1000 rupiah.

Hadiah dari Multi jackpot system www.kingpoker99.com

  1. Murni Kecil x 50 harga jackpot yang anda beli.
      (contoh:anda membeli 1000 maka:1000 X 50 = 50.000)
  2. Murni Besar x 50 harga jackpot yang anda beli
      (contoh:anda membeli 1000 maka:1000 X 50 = 50.000)
  3. BALAK x 200 harga jackpot yang anda beli
      (contoh:anda membeli 1000 maka:1000 X 200 = 200.000)
  4. ENAM DEWA x 6666 harga jackpot yang anda beli
      (contoh:anda membeli 1000 maka:1000 X 6666 = 6.666.000)

Demikian adalah penjelasan dari Multi Jackpot www.kingpoker99.com terima kasih dan selamat bermain salam hoki dari kami

Ceme Jackpot Winner

TOP ENAM DEWA
No.TanggalNamaPriceWin
117/08 02:01UNCONG99murni enam3,333,000
217/08 00:30LISTYO3566murni enam6,666,000
317/08 00:29SAKAA1219murni enam3,333,000
417/08 00:26IBENK_31murni enam666,600
517/08 00:01JOKER59murni enam6,666,000
TOP BALAK
No.TanggalNamaPriceWin
117/08 02:27LENCENGbalak100,000
217/08 02:26THIO10balak200,000
317/08 02:26ALKEV99balak100,000
417/08 02:26AMIEN44balak200,000
517/08 02:25DEMAK007balak200,000
LATEST JACKPOT
No.TanggalNamaPriceWin
117/08 02:28BAPUK07murni besar5,000
217/08 02:28QQEDWBOWOmurni besar5,000
317/08 02:28ELYAUMmurni kecil25,000
417/08 02:27PYTON99murni kecil5,000
517/08 02:27IZAR0709murni kecil5,000
617/08 02:27TONS2NDmurni besar5,000
717/08 02:27AMPOKERS88murni besar5,000
817/08 02:27THIO10murni kecil50,000
917/08 02:27REZAREYmurni kecil50,000
1017/08 02:27FRANK411murni kecil25,000
1117/08 02:27SURO80murni kecil5,000
1217/08 02:27CUSTO99murni besar50,000
1317/08 02:27LENCENGbalak100,000
1417/08 02:27AF964746murni besar25,000
1517/08 02:27OLIVE85murni besar5,000
1617/08 02:27MRDEPH30murni kecil50,000
1717/08 02:27MANTE999murni kecil25,000
1817/08 02:27SLLEE2WBM4murni besar25,000
1917/08 02:26FA9999NSmurni kecil50,000
2017/08 02:26RONI1331murni besar5,000
2117/08 02:26J72MY5FFQ7murni kecil50,000
2217/08 02:26SNI43696murni kecil50,000
2317/08 02:26GRAB30murni besar25,000
2417/08 02:26SITUYESmurni besar5,000
2517/08 02:26CAKMAMAT12murni kecil50,000
2617/08 02:26GENERASI56murni kecil50,000
2717/08 02:26A_DITmurni kecil5,000
2817/08 02:26GENDIS45murni kecil50,000
2917/08 02:26TAIUCING__murni kecil5,000
3017/08 02:26THIO10balak200,000
3117/08 02:26ALKEV99balak100,000
3217/08 02:26AMIEN44balak200,000
3317/08 02:25AHE8888397murni kecil25,000
3417/08 02:25QQEDWBOWOmurni kecil5,000
3517/08 02:25XFIGHT17Xmurni besar50,000
3617/08 02:25DEMAK007balak200,000
3717/08 02:25B3NGK4RUNGmurni kecil50,000
3817/08 02:25TONS2NDmurni besar5,000
3917/08 02:25WEB55murni besar5,000
4017/08 02:25WOW99balak200,000
4117/08 02:25MEGARTERUSmurni besar50,000
4217/08 02:25EMNYEHmurni besar5,000
4317/08 02:25BHAROESD09murni besar25,000
4417/08 02:25LAIMONANGmurni besar5,000
4517/08 02:25WOLF09balak200,000
4617/08 02:25PAKARJUD05murni kecil25,000
4717/08 02:24DOLOPmurni kecil5,000
4817/08 02:24GIBS999balak200,000
4917/08 02:24PAUL_MC2murni kecil50,000
5017/08 02:24FEBY789balak200,000